User: anonymous
Location: Durham
(54.7770°N, 1.5720°W)
Time: 00:03:28
(UTC+01:00)
Language:

ISS - Orbit

View from above orbital plane
View from above orbital plane
View from above satellite
View from above satellite

Ground track
Ground track

The orbit data is extracted from the following two-line orbital elements,

1 25544U 98067A   14206.78191094 -.00003829  00000-0 -58116-4 0  7708
2 25544 051.6475 268.2838 0006369 286.9367 176.6379 15.50430623897318
Epoch (UTC): 25 July 2014 18:45:57
Eccentricity: 0.0006369
inclination: 51.6475°
perigee height: 411 km
apogee height: 420 km
right ascension of ascending node: 268.2838°
argument of perigee: 286.9367°
revolutions per day: 15.50430623
mean anomaly at epoch: 176.6379°
orbit number at epoch: 89731

The dashed part of the orbit path shows where the satellite is in the earth's shadow,  

DLR